Location: Bacharowice
(49.9333°N, 19.5833°E)
Time: 22:38:41
(UTC+00:00)

ATLAS 2AS CENTAUR R/B - Pass Details

Date: 11 May 2021
Orbit: 949 x 1263 km, 63.7° (Epoch: 07 May)

Event Time Altitude Azimuth Distance (km) Brightness Sun altitude
Rises 19:32:48 0° 313° (NW) 4,155 8.1 -10.7°
Reaches altitude 10° 19:35:46 10° 319° (NW) 3,153 6.8 -11.0°
Maximum altitude 19:43:06 51° 34° (NE) 1,421 3.5 -11.8°
Enters shadow 19:49:39 11° 109° (ESE) 2,849 4.4 -12.5°
